Flag for U.S.A. Weather past 2 weeks in Albany, New York, U.S.A.

Now
63 °F

Passing clouds.


Feels Like: 63 °F
Forecast: 64 / 85 °F
Wind: No wind

Location: Albany County Airport

Current Time: Sep 1, 2015 at 6:25:27 AM

Latest Report: Sep 1, 2015 at 5:51 AM


Visibility: 9 mi

Pressure: 30.04 "Hg

Humidity: 90%

Dew point: 60 °F

Location of AlbanyLocation

Historic Weather in Albany — Graph

°F

Albany temperature yesterday

Maximum temperature yesterday: 86 °F (at 2:51 PM)
Minimum temperature yesterday: 65 °F (at 4:51 AM)
Average temperature yesterday: 75 °F

Past Weeks' High & Low Weather Summary

 TemperatureHumidityPressure
High92 °F (Aug 17, 3:51 PM)94% (Aug 31, 4:51 AM)30.22 "Hg (Aug 31, 4:51 AM)
Low55 °F (Aug 29, 4:51 AM)39% (Aug 20, 2:51 PM)29.80 "Hg (Aug 24, 4:51 PM)
Average73 °F67%30.01 "Hg
* Reported Aug 17 4:51 AM — Sep 1 4:51 AM, Albany, Weather by CustomWeather, © 2015

Note: Actual official high and low records may vary slightly from our data, if they occured in-between our weather recording intervals... More about our weather records

Advertising

Albany weather history for previous 24 hours

 ConditionsComfort  
Time TempWeatherWind HumidityBarometerVisibility
4:51 AM
Tue, Sep 1
64 °FFog.No wind87%30.03 "Hg10 mi
3:51 AM65 °FPassing clouds.No wind91%30.02 "Hg10 mi
2:51 AM65 °FClear.No wind91%30.01 "Hg10 mi
1:51 AM66 °FPassing clouds.No wind84%30.01 "Hg10 mi
12:51 AM71 °FPassing clouds.No wind73%30.01 "Hg10 mi
11:51 PM
Mon, Aug 31
72 °FPassing clouds.5 mph71%29.99 "Hg10 mi
10:51 PM74 °FClear.10 mph67%29.98 "Hg10 mi
9:51 PM75 °FClear.8 mph62%29.97 "Hg10 mi
8:51 PM78 °FPassing clouds.12 mph56%29.97 "Hg10 mi
7:51 PM79 °FPassing clouds.9 mph56%29.96 "Hg10 mi
6:51 PM81 °FPassing clouds.9 mph53%29.95 "Hg10 mi
5:51 PM84 °FPassing clouds.16 mph49%29.94 "Hg10 mi
4:51 PM85 °FScattered clouds.16 mph48%29.93 "Hg10 mi
3:51 PM85 °FScattered clouds.14 mph50%29.93 "Hg10 mi
2:51 PM86 °FScattered clouds.12 mph49%29.94 "Hg10 mi
1:51 PM84 °FBroken clouds.13 mph51%29.96 "Hg10 mi
12:51 PM85 °FScattered clouds.10 mph53%29.97 "Hg10 mi
11:51 AM82 °FBroken clouds.8 mph60%29.99 "Hg10 mi
10:51 AM79 °FPassing clouds.6 mph67%30.00 "Hg10 mi
9:51 AM75 °FFog.3 mph74%30.01 "Hg8 mi
9:01 AM70 °FFog.5 mph87%30.02 "Hg2 mi
7:51 AM68 °FFog.3 mph90%30.01 "Hg2 mi
6:51 AM65 °FFog.No wind94%30.01 "Hg2 mi
Weather by CustomWeather, © 2015

See weather overviewHow to use our weather pages